カタログに戻る

CZ-6A DEB

運用中SSO
NORAD 54986·DEBRIS·🇨🇳 China

打ち上げ Nov 11, 2022 から Taiyuan Satellite Launch Center

Loading…

次のパス (今後24時間)

TLE

最新Source: Space-Track

元期: Sep 14, 2026, 07:16 UTC

1 54986U 22151UB  26257.30319680  .00001677  00000-0  79066-3 0  9997
2 54986  98.8137 264.9566 0042531  37.6407 322.7733 14.20753647197025

AllMySatでCZ-6A DEBをリアルタイム追跡

Download on the App Store